Voltar ao catálogo

STARLINK-35044

AtivoComunicaçõesSSO
NORAD 65536·PAYLOAD·🇺🇸 United States

Lançado Sep 6, 2025 de Cape Canaveral Space Force Station

Loading…

Próximas Passagens (próximas 24 horas)

TLE

AtualizadoSource: CelesTrak SupGP

Época: Sep 14, 2026, 23:20 UTC

1 65536C 25200S   26257.97270833  .00018927  00000+0  58771-3 0  2579
2 65536  97.2850 324.5230 0000898  92.2614 135.7142 15.33421500    14

Acompanhe STARLINK-35044 em tempo real com AllMySat

Download on the App Store